Regional Weather Roundup
Issued by NWS

Home | Current Version | Previous Version | Graphics & Text | Print | Product List | Glossary On
Versions: 1 2 3 4 5 6 7 8 9 10 11 12 13 14 15 16 17 18 19 20 21 22 23 24 25 26 27 28 29 30 31 32 33 34 35 36 37 38 39 40 41 42 43 44 45 46 47 48 49 50
000
ASUS43 KMKX 312111
RWRWI

WISCONSIN REGIONAL WEATHER ROUNDUP
NATIONAL WEATHER SERVICE MILWAUKEE/SULLIVAN WI
400 PM CDT THU JUL 31 2014

NOTE: "FAIR" INDICATES FEW OR NO CLOUDS BELOW 12,000 FEET WITH NO
SIGNIFICANT WEATHER AND/OR OBSTRUCTIONS TO VISIBILITY.

WIZ001-002-006>008-014>016-023>028-312200-
NORTHWEST WISCONSIN

CITY           SKY/WX    TMP DP  RH WIND       PRES   REMARKS
SUPERIOR ARPT  MOSUNNY   81  58  45 NW7       29.95S HX  81
ASHLAND        SUNNY     78  55  44 NW8       29.97S
HAYWARD        SUNNY     80  55  42 VRB6      29.98F HX  80
SIREN          MOSUNNY   78  60  52 W13       29.98F HX  80
RICE LAKE      PTSUNNY   77  60  55 W7        30.00S
LADYSMITH      MOSUNNY   78  59  51 W7        30.00S HX  80
EAU CLAIRE     SUNNY     82  56  40 W12       29.99S HX  82
MENOMONIE      CLEAR     81  54  39 SW13      30.00F HX  81
NEW RICHMOND   MOSUNNY   81  55  40 W10       30.01S HX  80
OSCEOLA        SUNNY     81  59  47 W10       30.02S HX  81
$$

WIZ003>005-009-010-017-018-312200-
NORTH CENTRAL WISCONSIN

CITY           SKY/WX    TMP DP  RH WIND       PRES   REMARKS
WOODRUFF       SUNNY     80  48  32 NW8       29.99S
RHINELANDER    MOSUNNY   76  49  38 NW8G18    29.99F
EAGLE RIVER    MOSUNNY   75  44  33 W10       29.98S
LAND O LAKES   MOSUNNY   75  46  35 NW7       30.00S
PHILLIPS       MOSUNNY   76  53  44 NW6       29.98F
TOMAHAWK       MOSUNNY   76  54  46 NW6       29.99S
MEDFORD        MOSUNNY   75  62  63 W3        29.99F
MERRILL        MOSUNNY   75  58  55 W6        29.98S
$$

WIZ029-030-035-036-043>047-312200-
CENTRAL WISCONSIN

CITY           SKY/WX    TMP DP  RH WIND       PRES   REMARKS
WAUSAU         MOSUNNY   76  60  57 N9        29.96S
MOSINEE        PTSUNNY   79  57  47 W14G22    29.99S HX  80
MARSHFIELD     MOSUNNY   76  62  62 W8        29.99F
STEVENS POINT  PTSUNNY   70  60  72 W5        29.99R
WAUPACA        LGT RAIN  82  58  44 NW9       29.96S HX  82
WAUTOMA        MOSUNNY   83  58  42 W15       29.97F HX  83
WISC RAPIDS    MOSUNNY   81  58  45 W15G21    29.99F HX  81
CAMP DOUGLAS   MOSUNNY   79  61  53 W13       30.00F HX  80
$$

WIZ011>013-019>022-031-037>040-048>050-312200-
NORTHEAST WISCONSIN

CITY           SKY/WX    TMP DP  RH WIND       PRES   REMARKS
ANTIGO         SUNNY     76  52  42 NW10G17   29.98S
STURGEON BAY   SUNNY     79  50  36 W10       29.96S
GREEN BAY      MOSUNNY   78  60  53 W3        29.95S
MANITOWOC      LGT RAIN  66  59  78 SE8       29.99R
APPLETON       RAIN      75  57  53 NW9       29.97F
CLINTONVILLE   PTSUNNY   79  54  41 W8        29.95F
OSHKOSH        PTSUNNY   73  62  68 S5        29.96F
$$

WIZ032>034-041-042-053>061-312200-
SOUTHWEST WISCONSIN

CITY           SKY/WX    TMP DP  RH WIND       PRES   REMARKS
LA CROSSE      SUNNY     82  55  39 W10       30.00F HX  81
SPARTA         MOSUNNY   80  56  44 W7        30.02S HX  80
VIROQUA        FAIR      78  56  46 W7        30.04S
BOSCOBEL       MOSUNNY   84  58  40 NW9       30.02F HX  83
PRAIRIE DU CHI MOSUNNY   80  50  34 W8        30.02S HX  80
PLATTEVILLE    FAIR      80  58  46 W13       30.05S HX  81
$$

WIZ056-057-062-063-064-067-068-312200-
SOUTH CENTRAL WISCONSIN

CITY           SKY/WX    TMP DP  RH WIND       PRES   REMARKS
BARABOO/DELLS  MOSUNNY   81  54  38 NW10      30.00F HX  80
LONE ROCK      MOSUNNY   83  59  44 NW8       30.01F HX  83
WATERTOWN      SUNNY     79  58  48 SW14      30.00S HX  80
MADISON        MOSUNNY   82  58  43 W13       30.01S HX  82
MIDDLETON      FAIR      82  54  38 W13       30.02S HX  81
MONROE         MOSUNNY   79  54  41 W15G21    30.04S
JANESVILLE     MOSUNNY   84  50  30 W15       30.01S HX  82
$$

WIZ051-052-058>065-066-070>072-312200-
SOUTHEAST WISCONSIN

CITY           SKY/WX    TMP DP  RH WIND       PRES   REMARKS
MILWAUKEE      PTSUNNY   83  54  36 W10       29.99F HX  82
WAUKESHA       MOSUNNY   79  54  41 W9G17     30.00F
MILWAUKEE/TIMM MOSUNNY   81  52  36 W14       29.99F HX  80
RACINE         MOSUNNY   80  59  48 W9        30.01F HX  81
BURLINGTON     MOSUNNY   79  56  45 W9G16     30.01S
KENOSHA        MOSUNNY   80  58  46 W12       30.01S HX  80
FOND DU LAC    PTSUNNY   73  59  61 N8        29.98R
SHEBOYGAN      PTSUNNY   76  59  55 SW5       29.98F
WEST BEND      MOSUNNY   79  54  41 W12       29.99R
JUNEAU         MOSUNNY   79  52  37 W14       30.00S
$$

LSZ147-162-312200-
LAKE SUPERIOR

STATION/POSITION TIME  TEMP    WIND        PRES    WAVE
                       AIR SEA DIR/SP/G            HT/PER
                 (UTC) (F)     (DEG/KT/KT) (MB)    (FT/S)
W MID LAKE BUOY  2050   50 44  200/  4/  6 1014.3R   0
PORT WING        2040   77     250/  7/ 10 1014.2F
SAXON HARBOR     2000           50/  2/  3 1014.9S
$$

LMZ867-665-643>646-312200-
LAKE MICHIGAN

STATION/POSITION TIME  TEMP    WIND        PRES    WAVE
                       AIR SEA DIR/SP/G            HT/PER
                 (UTC) (F)     (DEG/KT/KT) (MB)    (FT/S)
N MID LAKE BUOY  2050   59 55  210/ 14/ 16 1013.5F   1/ 3
NORTHPORT PIER   2000   71     140/ 10/ 12 1013.9S
SISTER BAY       1955   83     270/  9/ 10   N/A
ALGOMA LAKESHORE 2021          210/ 10/ 11   N/A
KEWAUNEE LAKESHO 2000   60     180/ 11/ 12 1014.3F
SHEBOYGAN LAKESH 2100   69     170/ 16/ 17 1015.1F
PORT WASHINGTON  2000   69     160/  4/  9 1015.9F
ATWATER BUOY     2100   68     120/  6     1016.1F
MILWAUKEE LAKESH 2000   79     280/ 11/ 14   N/A
S MID LAKE BUOY  2050   66 64  150/  8/ 10 1016.2F   1
KENOSHA   LAKESH 2100   80     270/ 12/ 19 1015.2S
$$

TC  - TEMPERATURE IN CELSIUS
VSB - VISIBILITY IN STATUTE MILES
WCI - WIND CHILL INDEX
HX  - HEAT INDEX




USA.gov is the U.S. government's official web portal to all federal, state and local government web resources and services.